Location: ????????
(54.7949°N, 38.5606°E)
Time: 08:40:06
(UTC+00:00)

Daily predictions for brighter satellites

Satellite Brightness Start Highest point End
(mag) Time Altitude Azimuth Time Altitude Azimuth Time Altitude Azimuth
Aureole 3 Rocket 2.7 18:15:09 10° N 18:18:34 81° ENE 18:22:57 10° SSE
Cosmos 2237 Rocket 2.5 18:13:05 10° SW 18:18:47 78° NW 18:24:33 10° NNE
Resurs 01 Rocket 3.9 18:15:16 10° SW 18:18:51 24° W 18:22:27 10° NW
GEOS 3 Rocket 4.3 18:20:05 10° ENE 18:24:46 33° ESE 18:29:22 10° S
Cosmos 1980 4.2 18:21:19 10° SW 18:26:56 67° NW 18:32:36 10° NNE
Okean 3 Rocket 3.9 18:24:30 10° N 18:28:50 51° ENE 18:33:06 10° SSE
Cosmos 923 Rocket 4.0 18:23:53 10° SSW 18:29:12 78° ESE 18:34:34 10° NNE
Cosmos 1378 2.9 18:26:34 10° SSW 18:29:51 84° WNW 18:33:10 10° N
SPOT 5 3.5 18:25:31 10° S 18:30:03 52° W 18:34:25 10° NNW
USA 234 3.6 18:23:32 10° E 18:30:05 75° N 18:36:37 10° W
Cosmos 921 Rocket 3.8 18:26:17 10° SSE 18:30:20 35° ESE 18:34:26 10° NE
Cosmos 1943 4.4 18:31:30 10° SSE 18:35:49 23° ESE 18:40:08 10° NE
ARGOS Delta rocket 4.1 18:31:50 10° S 18:36:58 78° WSW 18:41:51 10° NNW
Landsat 5 4.3 18:35:45 10° NE 18:39:04 28° E 18:42:22 10° SSE
Landsat 4 3.9 18:35:38 10° S 18:39:06 63° WSW 18:42:36 10° NNW
USA 306 2.6 18:35:48 10° W 18:39:33 78° S 18:43:28 10° E
Cosmos 1656 Rocket 3.9 18:34:52 10° NW 18:40:16 66° WSW 18:45:42 10° SSE
ATLAS 2AS CENTAUR R/B 3.0 18:33:09 10° SW 18:40:31 84° NW 18:47:35 10° NE
Terra 2.0 18:36:14 10° S 18:40:57 73° WSW 18:45:41 10° NNW
Okean O Rocket 4.2 18:38:01 10° SW 18:41:01 18° W 18:44:01 10° NW
USA 59 Rocket 1.1 18:40:39 10° NW 18:43:44 33° NNE 18:47:35 10° E
Meteor 1-14 Rocket 4.4 18:38:35 10° NNW 18:44:24 87° ENE 18:50:19 10° SSE
ERS-1 Rocket 3.5 18:40:21 10° S 18:45:19 60° WSW 18:50:19 10° NNW
USA 281 3.3 18:41:03 10° SSE 18:47:38 81° WSW 18:54:17 10° NNW
Meteor 1-11 Rocket 4.1 18:42:20 10° N 18:47:50 55° ENE 18:53:15 11° SSE
SPOT 3 Rocket 3.7 18:44:08 10° SSE 18:49:17 78° WSW 18:54:28 10° NNW
Cosmos 1943 Rocket 4.3 18:47:39 10° NW 18:51:36 20° W 18:55:31 10° SW
Cosmos 1842 Rocket 4.0 18:47:59 10° SSE 18:52:15 47° E 18:56:31 10° NNE
Lacrosse 4 Rocket 3.6 18:49:46 10° NNW 18:52:49 20° NNE 18:55:54 10° ENE
H-2A R/B 4.3 18:51:10 10° ESE 18:54:20 22° ENE 18:57:34 10° N
NOSS 2-1 (D) 4.3 18:53:04 10° NW 18:56:15 38° NNE 19:00:14 10° E
USA 307 1.0 18:57:04 10° W 18:57:34 23° WSW 18:57:34 23° WSW
Cosmos 1331 Rocket 4.2 18:52:53 10° NNW 18:58:10 70° ENE 19:02:58 12° SE
Cosmos 1110 Rocket 4.1 18:54:36 10° NNW 18:59:57 77° ENE 19:04:49 13° SSE
Cosmos 2279 Rocket 4.0 18:53:55 10° N 19:00:10 83° ENE 19:06:19 10° SSE
Cosmos 1634 Rocket 4.3 18:54:41 10° NNW 19:01:00 72° W 19:07:12 10° S
Cosmos 1743 3.4 18:59:36 10° NNW 19:03:05 45° W 19:06:33 10° SSW
Cosmos 2297 4.5 18:58:22 10° NW 19:03:51 47° WSW 19:09:16 10° S
ARIANE 5 R/B 3.6 19:01:09 11° SE 19:04:54 36° ENE 19:08:52 10° N
USA 229 DEB 4.2 18:59:56 10° NW 19:07:08 63° SW 19:14:21 13° SSE
USA 229 4.2 19:00:03 10° NW 19:07:14 64° SW 19:14:28 13° SSE
ISS -3.2 19:05:19 10° W 19:08:27 39° SSW 19:10:58 14° SE
Cosmos 1340 Rocket 4.4 19:06:59 13° SE 19:09:25 21° E 19:12:27 10° NE
Cosmos 2112 Rocket 4.2 19:06:18 10° SSW 19:11:38 80° WNW 19:16:58 10° NNE
Spot 2 Rocket 4.5 19:14:49 10° SSW 19:19:34 41° W 19:24:22 10° NNW
Cosmos 1680 Rocket 4.1 19:16:45 10° SW 19:21:59 61° WNW 19:27:14 10° NNE
Cosmos 1726 2.1 19:20:27 10° NNW 19:23:34 56° W 19:26:04 14° S
Meteor 2-6 Rocket 4.3 19:18:12 10° SSW 19:23:49 82° WNW 19:29:21 10° NNE
Cosmos 1805 4.1 19:25:07 10° N 19:28:35 35° ENE 19:31:06 16° SE
Cosmos 1743 Rocket 3.6 19:26:04 10° N 19:30:27 69° ENE 19:33:46 17° SSE
NOSS 2-1 (C) 3.7 19:28:07 10° NW 19:31:31 59° NE 19:35:57 10° ESE
Kosmos-1783 4.1 19:30:37 10° W 19:32:02 29° NNW 19:33:58 10° NE
Sich 1 3.0 19:31:27 10° N 19:35:50 83° ENE 19:39:07 17° SSE
SL-16 R/B 2.7 19:30:15 10° SW 19:35:53 66° NW 19:41:35 10° NNE
MetOp-A 4.3 19:33:25 13° S 19:37:19 51° W 19:42:01 10° NNW
Cosmos 1603 4.2 19:33:53 14° S 19:38:22 40° ESE 19:43:40 10° NE
Lacrosse 5 4.1 19:38:27 10° W 19:40:36 13° WSW 19:42:44 10° SSW
Cosmos 1452 Rocket 3.9 19:37:15 10° NNW 19:42:23 55° WSW 19:46:28 16° S
Cosmos 1536 3.3 19:40:08 10° NNW 19:43:54 51° W 19:46:58 15° SSW
Cosmos 1975 3.5 19:40:27 10° N 19:44:13 42° ENE 19:46:47 18° SE
Meteor 1-27 Rocket 3.8 19:39:56 15° S 19:44:31 62° E 19:50:00 10° NNE
Spot 1 4.3 19:40:43 10° NNE 19:44:44 64° WNW 19:48:47 10° SSW
Cosmos 1408 Rocket 4.1 19:41:10 10° NNW 19:45:32 55° W 19:49:11 14° S
Cosmos 2369 Rocket 3.5 19:41:06 10° NW 19:45:57 31° WSW 19:50:37 11° SSW
Lacrosse 5 rocket 1.4 19:44:43 10° WSW 19:49:00 87° NNW 19:53:11 10° ENE
Cosmos 1340 2.3 19:50:00 10° NNW 19:53:25 87° W 19:55:25 23° S
Okean 1 3.2 19:50:57 16° S 19:53:57 89° WNW 19:57:52 10° NNE
PSLV R/B 4.4 19:50:08 10° NNE 19:54:04 44° E 19:56:27 21° SSE
Cosmos 1626 3.5 19:59:00 17° ESE 20:00:07 20° E 20:02:34 10° NE
GEOS 3 Rocket 3.8 19:57:55 10° NE 20:03:09 74° NW 20:08:17 10° WSW
BREEZE-M DEB (TANK) 3.4 20:02:07 10° SW 20:07:54 - ESE 20:02:58 18° SW
Cosmos 921 Rocket 4.5 20:04:18 10° SW 20:08:30 39° WNW 20:12:45 10° NNE
Meteor 2-17 Rocket 4.4 20:06:28 15° S 20:11:37 88° E 20:17:43 10° NNE
USA 234 3.2 20:06:31 10° ESE 20:13:06 85° SSW 20:19:42 10° WNW
USA 306 3.1 20:09:29 10° W 20:13:09 42° SSW 20:15:01 24° SSE
SL-8 R/B 4.4 20:14:44 10° SW 20:18:50 29° SSE 20:22:58 10° E
Cosmos 1943 3.3 20:13:32 10° SW 20:19:14 84° WNW 20:24:57 10° NNE
Terra 4.3 20:17:25 10° WSW 20:19:25 12° W 20:21:26 10° WNW
Cosmos 1328 Rocket 4.1 20:19:15 22° SSE 20:21:36 43° E 20:25:43 10° NNE
Meteor 2-4 Rocket 4.0 20:18:25 20° S 20:22:30 60° E 20:28:21 10° NNE
Spot 4 3.8 20:19:23 22° SSE 20:22:30 87° ENE 20:27:18 10° NNW
Cosmos 1733 4.3 20:20:53 10° NNW 20:24:05 33° W 20:26:10 17° SSW
IRIDIUM 104 4.4 20:18:52 10° N 20:24:07 78° W 20:27:45 20° S
ALOS 2 2.8 20:21:27 22° SSE 20:24:13 67° ENE 20:28:37 10° N
Cosmos 1470 Rocket 4.0 20:20:28 10° N 20:24:52 53° ENE 20:27:38 21° SE
Cosmos 1048 Rocket 4.4 20:20:08 10° SW 20:25:14 61° WNW 20:30:21 10° NNE
H-2A R/B 2.7 20:26:30 23° S 20:28:55 62° WSW 20:33:07 10° NNW
Cosmos 1092 Rocket 4.1 20:25:48 19° S 20:30:21 73° E 20:36:40 10° NNE
Lacrosse 4 Rocket 1.5 20:27:44 10° NW 20:31:48 70° NE 20:34:40 19° SE
Cosmos 1428 Rocket 4.4 20:27:23 18° S 20:32:10 90° NNW 20:38:19 10° NNE
ATLAS 2AS CENTAUR R/B 4.0 20:25:21 10° W 20:32:14 45° NNW 20:38:51 10° ENE
USA 59 Rocket 0.0 20:29:56 10° NW 20:33:34 60° SW 20:36:26 22° SSE
Cosmos 1656 3.6 20:28:11 10° NNW 20:33:40 85° ENE 20:37:39 19° SE
Cosmos 1302 Rocket 4.5 20:28:51 10° NW 20:33:50 49° WSW 20:37:02 21° S
NOSS 2-1 (E) 3.6 20:30:47 10° NW 20:34:25 59° SW 20:37:17 22° SSE
Cosmos 1666 Rocket 3.6 20:30:28 10° NNW 20:34:49 74° W 20:37:19 25° S
Cosmos 1151 Rocket 3.2 20:31:54 19° SSW 20:34:59 71° WNW 20:39:21 10° N
Cosmos 1633 Rocket 3.1 20:34:09 10° NNW 20:38:35 81° W 20:41:08 25° S
ARIANE 5 R/B 3.7 20:38:36 18° SSW 20:41:19 35° W 20:45:19 10° NNW
Cosmos 1992 Rocket 4.0 20:37:11 10° NNW 20:42:26 74° WSW 20:45:43 23° SSE
Cosmos 1697 Rocket 3.3 20:38:36 10° NNW 20:44:09 53° NE 20:49:36 10° SE
ISS -1.7 20:42:26 10° WSW 20:43:46 15° SW 20:43:46 15° SW
Cosmos 1340 Rocket 3.5 20:42:10 16° SW 20:45:12 49° WNW 20:49:07 10° N
CZ-2C R/B 4.2 20:41:03 10° N 20:45:32 55° WNW 20:49:14 14° SW
NOSS 2-1 (D) 3.8 20:42:27 10° WNW 20:46:01 47° SW 20:48:21 25° SSE
H-2A R/B 3.3 20:43:01 10° NNE 20:46:57 30° E 20:49:05 20° SE
Cosmos 1980 Rocket 3.6 20:44:08 10° NNW 20:49:27 37° NE 20:54:43 10° ESE
Cosmos 1842 4.4 20:48:05 21° SE 20:49:36 28° E 20:52:50 10° NNE
Cosmos 1933 Rocket 4.1 20:46:03 10° N 20:50:18 50° ENE 20:52:58 21° SE
Cosmos 614 Rocket 4.0 20:47:59 22° S 20:51:19 66° ESE 20:56:30 10° NNE
Cosmos 1908 4.3 20:49:47 10° N 20:53:04 32° ENE 20:55:06 18° ESE
Cosmos 1766 3.1 20:50:45 10° NNW 20:54:29 85° W 20:56:16 30° S
Cosmos 1470 3.1 20:54:39 10° N 20:58:20 54° ENE 21:00:14 25° SE
Cosmos 1707 3.9 21:00:02 21° SE 21:01:33 29° E 21:04:45 10° NNE
Cosmos 2360 4.2 21:04:12 10° NW 21:09:57 86° WSW 21:14:09 19° SSE
KORONAS-FOTON 4.4 21:08:47 26° SE 21:10:18 41° E 21:13:47 10° NNE
NOSS 3-3 (A) 4.5 21:12:17 23° S 21:15:13 39° ESE 21:21:08 10° NE
USA 267 3.4 21:11:19 10° ENE 21:17:42 52° SE 21:23:24 13° SW
Cosmos 1975 4.5 21:16:43 10° NW 21:19:54 24° W 21:21:58 16° SW
Cosmos 1603 4.5 21:16:51 10° SW 21:22:24 52° NW 21:28:01 10° NNE
Orbus 7S? 4.3 21:24:43 22° SE 21:24:43 22° SE 21:26:38 10° E
Cosmos 1269 Rocket 4.0 21:24:14 24° SSW 21:27:28 70° ESE 21:32:44 10° NNE
Lacrosse 5 rocket 1.8 21:23:23 10° W 21:27:36 63° N 21:31:40 10° E
NOSS 3-4 (A) 3.8 21:21:09 10° NW 21:27:42 81° NE 21:35:22 10° SE
NOSS 3-4 (C) 3.9 21:21:13 10° NW 21:27:45 81° NE 21:35:25 10° SE
Helios 1A Rocket 4.2 21:24:57 12° SE 21:28:05 32° ENE 21:31:34 10° N
Cosmos 1140 Rocket 4.4 21:25:30 21° SSE 21:28:17 35° ESE 21:33:02 10° NE
Cosmos 2082 Rocket 4.3 21:27:14 10° SE 21:30:22 15° E 21:33:31 10° ENE
Cosmos 1626 3.0 21:31:50 20° WSW 21:33:30 33° WNW 21:36:31 10° N
PSLV R/B 3.7 21:29:05 10° NNE 21:33:44 88° ESE 21:36:22 25° SSW
Cosmos 1674 2.4 21:34:14 32° SSW 21:35:43 86° W 21:39:14 10° N
Meteor 2-10 Rocket 4.3 21:30:33 10° N 21:36:16 55° ENE 21:41:11 14° SE
Cosmos 2315 Rocket 4.2 21:31:42 10° N 21:38:00 73° ENE 21:42:48 18° SSE
Cosmos 1833 Rocket 3.2 21:35:30 23° S 21:38:41 46° ESE 21:44:02 10° NE
S3M 4.1 21:32:56 10° NNW 21:39:18 83° W 21:43:47 21° S
NOSS 3-3 (C) 4.1 21:38:41 23° SSW 21:42:07 52° SE 21:48:27 10° NE
Cosmos 1300 3.7 21:39:45 10° N 21:43:06 36° ENE 21:45:31 16° SE
Cosmos 44 Rocket 3.2 21:38:19 10° NW 21:43:20 81° SW 21:47:31 14° SE
BREEZE-M DEB (TANK) 3.9 21:33:12 10° SW 21:44:47 41° S 21:48:27 10° E
SL-24 R/B 4.3 21:42:15 10° NNE 21:46:37 70° WNW 21:49:34 22° SSW
Cosmos 2285 Rocket 4.5 21:44:24 21° S 21:48:26 49° ESE 21:54:31 10° NE
GP-B 3.0 21:51:37 10° N 21:56:03 89° W 21:58:36 25° S
Cosmos 1763 Rocket 3.8 21:51:00 10° NNW 21:56:21 70° ENE 22:01:25 11° SE
USA 234 3.6 21:51:34 15° SSE 21:56:38 42° SW 22:02:49 10° WNW
Cosmos 1515 Rocket 4.0 21:54:34 22° SW 21:57:12 52° WNW 22:01:27 10° N
CZ-2D R/B 4.4 21:56:09 10° NE 21:59:13 15° E 22:02:16 10° ESE
SL-8 R/B 4.1 21:56:12 10° WSW 22:00:38 39° S 22:05:05 10° ESE
ALOS 2 4.4 21:58:50 14° SW 22:01:00 19° W 22:04:13 10° NW
Cosmos 1400 Rocket 3.9 21:59:47 19° SSE 22:02:03 35° E 22:05:44 10° NNE
Meteor 1-13 Rocket 4.4 21:58:56 22° S 22:02:58 83° ESE 22:08:56 10° NNE
Cosmos 1869 Rocket 3.7 21:59:16 10° NNW 22:03:33 58° W 22:05:54 25° SSW
Cosmos 1733 Rocket 3.3 22:02:32 10° N 22:06:51 66° ENE 22:09:57 18° SSE
Lacrosse 4 Rocket 2.9 22:06:41 10° WNW 22:09:41 20° WSW 22:10:34 19° SW
BREEZE-M DEB (TANK) 4.5 22:07:51 21° SW 22:10:18 45° SSE 22:21:03 10° E
Cosmos 1655 Rocket 4.1 22:07:35 21° S 22:12:06 84° E 22:18:31 10° NNE
Aureole 3 4.3 22:10:46 17° SE 22:12:16 25° E 22:14:46 10° NE
Cosmos 1818 3.6 22:13:02 18° SW 22:17:11 83° SE 22:22:43 10° NE
Cosmos 2322 Rocket 4.1 22:12:12 10° NNW 22:17:15 32° NE 22:22:17 10° E
Cosmos 1346 Rocket 3.3 22:14:00 10° N 22:17:49 53° ENE 22:20:57 14° SSE
H-2A R/B 2.9 22:18:34 10° N 22:22:47 44° WNW 22:25:53 17° SW
USA 59 Rocket 2.2 22:21:13 10° W 22:22:57 12° WSW 22:22:59 12° WSW
Cosmos 540 Rocket 3.5 22:19:01 10° NNW 22:24:14 82° ENE 22:29:25 10° SSE
Resurs 1-4 Rocket 3.9 22:20:16 10° NE 22:24:21 22° E 22:28:23 10° SE
Meteor 1-15 Rocket 4.5 22:18:56 10° NNW 22:24:31 56° W 22:28:18 20° SSW
ATLAS 2AS CENTAUR R/B 4.0 22:17:49 10° WNW 22:24:33 44° NNE 22:31:01 10° E
Cosmos 1842 4.4 22:22:35 17° WSW 22:24:47 31° WNW 22:28:07 10° N
Meteor 1-12 Rocket 4.4 22:19:56 10° NNW 22:25:44 69° W 22:30:07 19° S
Cosmos 1908 4.5 22:24:54 10° NW 22:27:53 25° W 22:29:18 19° SW
Cosmos 1697 Rocket 3.3 22:22:49 10° NW 22:28:00 38° WSW 22:31:17 20° SSW
APEX 2.1 22:28:03 40° WSW 22:28:34 55° NW 22:30:43 10° NNE
OPS 6432 4.1 22:25:38 10° NW 22:28:52 89° SW 22:31:58 10° SE
Cosmos 1441 Rocket 3.9 22:25:55 10° NNW 22:29:14 36° W 22:30:46 24° SW
CZ-2C R/B 3.8 22:24:57 10° SE 22:29:46 41° ENE 22:34:36 10° N
SL-14 R/B 3.4 22:27:37 23° S 22:29:56 66° E 22:33:46 10° NNE
Cosmos 1953 3.4 22:27:25 10° N 22:31:09 40° ENE 22:34:51 10° SE
Cosmos 1980 Rocket 2.3 22:28:10 10° NW 22:33:49 64° WSW 22:38:50 13° SSE
COSMOS 2406 4.3 22:30:09 15° SSE 22:34:17 34° ESE 22:39:26 10° NE
Cosmos 1707 3.9 22:34:21 17° WSW 22:36:32 30° WNW 22:39:49 10° N
Cosmos 2369 3.7 22:31:43 10° NW 22:37:26 74° WSW 22:43:07 10° SSE
Cosmos 2266 Rocket 4.5 22:35:15 17° SW 22:39:54 51° WNW 22:46:00 10° N
SL-16 R/B 3.9 22:35:01 10° ESE 22:40:42 39° ENE 22:46:26 10° N
Cosmos 1862 Rocket 3.6 22:38:55 20° S 22:41:51 71° E 22:46:11 10° NNE
Cosmos 1758 3.6 22:38:09 10° NNW 22:41:52 49° W 22:44:00 22° SSW
Meteor 1-16 Rocket 4.3 22:37:46 10° NNW 22:43:23 84° ENE 22:48:56 11° SSE
Cosmos 1607 4.1 22:39:11 18° SSW 22:44:05 67° SE 22:50:33 10° NE
Meteor 1-21 4.3 22:45:11 17° S 22:49:35 77° E 22:55:21 10° NNE
SL-16 R/B 2.6 22:54:16 10° NNW 22:59:57 67° NE 23:05:36 10° SE
Cosmos 1455 2.3 22:57:37 10° N 23:01:04 63° ENE 23:04:23 11° SSE
USA 267 3.3 22:54:29 10° ENE 23:01:04 87° NNW 23:07:38 10° WSW
Helios 1A Rocket 3.7 23:00:20 19° SSW 23:02:26 32° W 23:05:58 10° NNW
Cosmos 1315 Rocket 4.1 23:00:48 10° SSE 23:04:14 34° E 23:07:47 10° NNE
Cosmos 2228 Rocket 3.4 23:01:24 18° SSW 23:04:33 56° WNW 23:09:00 10° N
H-2A R/B 4.1 23:01:08 10° NNE 23:05:01 46° E 23:08:22 13° S
NOSS 3-3 (A) 4.3 22:59:56 10° WSW 23:05:44 69° NNW 23:12:39 10° NE
Lacrosse 5 rocket 1.2 23:01:57 10° WNW 23:06:08 80° SSW 23:10:07 10° ESE
Cosmos 1707 Rocket 3.8 23:03:45 18° SSW 23:06:56 60° WNW 23:11:21 10° N
Cosmos 1140 Rocket 4.1 23:05:26 13° SW 23:09:56 49° NW 23:15:01 10° NNE
Cosmos 841 Rocket 3.5 23:04:43 10° NNW 23:09:59 89° ENE 23:15:14 10° SSE
Cosmos 2251 Rocket 3.7 23:05:57 16° SW 23:10:10 70° WNW 23:15:29 10° NNE
Meteor 1-4 Rocket 3.3 23:09:09 13° SSE 23:11:27 35° E 23:14:13 10° NNE
Cosmos 2237 4.3 23:07:13 10° NNW 23:13:00 86° NE 23:18:45 10° SE
Cosmos 2082 Rocket 2.4 23:08:47 16° SSW 23:13:26 70° ESE 23:19:09 10° NE
Cosmos 676 Rocket 4.3 23:12:40 14° S 23:17:08 62° ESE 23:22:24 10° NNE
Cosmos 1300 4.0 23:14:51 10° NW 23:17:42 23° W 23:19:33 15° SW
NOSS 3-4 (A) 4.4 23:12:11 10° WNW 23:18:21 37° WSW 23:25:19 10° S
NOSS 3-4 (C) 4.4 23:12:14 10° WNW 23:18:24 37° WSW 23:25:24 10° S
Cosmos 2219 Rocket 4.0 23:14:10 10° NNW 23:19:22 36° NE 23:24:33 10° ESE
ADEOS II 3.3 23:14:50 10° NNE 23:19:43 37° E 23:24:34 10° SSE
Cosmos 1833 Rocket 3.5 23:17:16 10° WSW 23:22:41 46° NW 23:28:06 10° NNE
Cosmos 468 Rocket 4.5 23:18:13 10° NW 23:23:12 42° WSW 23:27:56 11° S
Cosmos 407 Rocket 4.0 23:18:38 13° SW 23:23:14 54° NW 23:28:25 10° NNE
Cosmos 1954 Rocket 4.1 23:20:53 15° SSW 23:25:24 82° ESE 23:30:45 10° NNE
Cosmos 1190 Rocket 4.1 23:21:55 15° SSW 23:26:23 79° WNW 23:31:44 10° NNE
Cosmos 2360 Rocket 3.0 23:20:47 10° NNW 23:26:24 57° NE 23:32:00 10° SE
MOZ.5/SAFIR/RUBIN 5/SL-8 4.4 23:24:18 14° SSW 23:28:02 40° W 23:32:31 10° NNW
Cosmos 1782 Rocket 3.7 23:24:43 10° N 23:29:10 80° ENE 23:33:32 10° SSE
IDEFIX/ARIANE 42P 2.7 23:25:00 10° NNE 23:30:18 79° ESE 23:35:21 11° SSW
Cosmos 1908 Rocket 3.7 23:25:58 10° NNW 23:30:22 59° W 23:34:34 11° S
Okean 1-7 3.0 23:26:56 14° SSW 23:30:34 78° WNW 23:34:54 10° N
Okean 2 3.3 23:28:57 14° SSW 23:32:18 80° W 23:36:19 10° N
SJ 16-02 3.7 23:31:15 10° SE 23:34:03 17° E 23:36:52 10° NE
CZ-2C R/B 3.9 23:31:22 10° NNE 23:37:07 58° E 23:42:49 10° S
Cosmos 1400 Rocket 4.1 23:34:57 12° SW 23:38:09 29° WNW 23:41:42 10° N
Cosmos 1408 4.1 23:36:39 10° SSE 23:39:10 25° E 23:41:41 10° NE
Cosmos 1745 Rocket 4.1 23:33:17 10° S 23:39:30 88° E 23:45:50 10° NNE
Cosmos 2278 3.8 23:34:31 10° NW 23:40:09 60° WSW 23:45:46 10° SSE
CZ-2D R/B 2.4 23:34:41 10° NNE 23:40:13 73° ESE 23:45:40 10° S
ALOS 3.8 23:37:51 10° NNE 23:42:02 32° E 23:46:10 10° SSE
Cosmos 2333 Rocket 2.6 23:42:20 10° NNW 23:48:04 70° NE 23:53:47 10° SE
COBE Rocket 4.0 23:44:36 10° N 23:49:24 70° WNW 23:54:15 10° SSW
Aureole 3 4.5 23:50:45 10° WSW 23:53:01 20° WNW 23:55:19 10° NNW
Cosmos 1346 Rocket 4.4 23:50:35 10° NW 23:53:20 19° W 23:55:55 11° SW
FENGYUN 3A 4.1 23:48:08 10° NNE 23:53:29 62° ESE 23:58:48 10° S
Okean 3 4.5 23:50:23 11° SW 23:53:53 32° WNW 23:57:37 10° N
Cosmos 2242 Rocket 4.2 23:50:05 10° S 23:54:24 54° E 23:58:48 10° NNE
